Location: ????????
(55.6333°N, 37.7000°E)
Time: 01:09:56
(UTC+00:00)

Resurs 1-4 Rocket - Pass Details

Date: 26 May 2026
Orbit: 797 x 813 km, 98.8° (Epoch: 10 June)

Event Time Altitude Azimuth Distance (km) Brightness Sun altitude
Rises 00:00:10 0° 19° (NNE) 3,324 7.0 -6.6°
Reaches altitude 10° 00:02:36 10° 25° (NNE) 2,387 6.2 -6.4°
Maximum altitude 00:07:42 49° 100° (E) 1,032 2.9 -6.0°
Drops below altitude 10° 00:12:46 10° 175° (S) 2,367 4.1 -5.5°
Sets 00:15:09 0° 181° (S) 3,292 4.8 -5.3°
